Wind_Speed
9 5 1 2 3 4 5 6 6 7 7 7 7 7 8 8 9 9 9 8 8 7 7 6 5 4 3 2 2 3 3 3 3 11 12 9 13 13 13 13 12 13 12 12 10 8 5 3 6 7 3 1 2 1 1 1 2 2 2 1 1 2 3 4 5 4 2 3 4 4 0 3 2 2 1 1 5 3 1 2 2 3 2 2 6 5 6 18
6 2 0 2 3 3 4 5 5 5 6 6 6 6 6 7 7 7 8 8 8 7 7 6 4 4 2 2 3 4 4 2 4 9 12 12 13 12 12 13 12 12 12 11 10 8 5 3 7 7 4 1 2 1 1 1 2 3 3 1 3 5 4 4 4 3 2 3 4 4 1 2 3 2 2 1 3 3 1 4 3 4 4 2 3 2 13 19
3 2 2 2 1 1 1 2 2 3 3 3 3 3 4 4 5 5 5 6 7 7 6 5 4 3 2 3 4 4 4 2 4 5 11 12 10 10 11 12 11 11 11 10 10 8 3 3 4 4 3 1 2 1 1 1 1 2 3 1 5 5 4 3 3 3 3 3 3 4 1 2 3 2 1 2 2 1 4 6 3 6 7 4 2 6 14 17
2 2 3 3 3 3 2 1 1 0 1 1 2 2 2 3 3 3 3 4 5 6 5 4 4 3 3 4 5 5 4 4 3 5 11 12 9 10 10 11 10 10 11 10 9 7 5 4 1 2 3 1 3 2 0 2 1 1 3 4 5 3 2 3 4 4 4 2 2 3 2 2 2 1 2 4 2 4 7 7 7 9 7 6 5 8 13 14
2 3 4 4 5 5 5 4 3 2 0 1 2 2 3 3 3 3 3 4 6 7 6 5 4 4 4 4 5 4 3 3 3 8 12 12 10 10 11 11 9 10 11 9 7 5 3 1 2 4 3 0 3 3 2 3 2 1 2 5 5 2 1 3 2 2 2 1 1 2 2 3 1 0 2 6 5 6 6 5 6 7 5 9 9 10 12 12
3 3 4 4 5 6 6 5 4 3 1 1 1 1 1 3 3 4 4 4 7 8 7 6 5 5 4 5 5 2 4 2 5 10 13 12 10 10 11 9 8 10 9 6 5 4 3 3 4 3 3 2 2 1 3 4 2 1 3 2 3 3 2 3 2 3 3 2 2 1 2 2 3 4 2 6 9 7 5 5 5 6 6 11 12 11 11 11
2 3 4 3 5 6 7 6 5 4 3 2 2 2 1 1 2 4 4 4 8 8 7 7 6 6 5 6 5 3 5 1 8 11 13 13 10 10 10 7 7 9 5 5 7 3 4 6 5 3 3 3 1 1 3 4 3 2 2 2 2 2 2 1 3 4 4 2 3 2 3 3 2 4 2 3 10 7 4 5 4 4 7 12 11 11 12 12
2 3 3 4 5 7 7 7 6 5 4 4 4 3 2 1 2 3 3 4 7 7 6 7 6 6 6 6 5 4 3 2 9 12 13 13 9 9 8 5 7 6 4 8 7 0 3 5 2 2 3 1 2 1 2 3 3 3 2 3 0 1 2 3 3 4 4 2 3 3 4 6 6 2 2 8 11 6 4 2 2 4 7 9 8 10 11 11
3 3 4 5 6 7 7 7 6 5 5 5 4 3 3 2 3 4 5 7 8 7 7 7 7 8 7 4 5 4 2 4 10 12 13 12 8 7 6 6 8 7 7 8 8 3 2 2 1 2 2 2 2 0 2 3 2 1 1 1 2 3 4 4 2 4 4 2 3 3 6 7 5 1 4 11 9 4 1 3 3 5 6 7 7 8 10 10
5 5 4 5 5 6 7 6 6 5 6 6 5 5 5 5 6 7 8 8 8 8 8 8 7 7 6 2 5 3 2 5 10 12 12 12 8 4 5 7 9 9 8 7 9 8 3 2 2 2 4 2 2 1 2 2 1 2 3 3 3 4 4 4 2 4 4 3 2 2 7 8 3 1 5 8 4 2 3 2 1 4 6 7 6 7 10 11
4 4 4 4 5 6 6 6 5 5 6 6 6 6 7 7 8 9 9 10 11 11 10 9 9 7 5 4 6 3 2 6 11 14 14 12 7 3 5 7 8 9 8 7 7 6 4 0 2 3 2 0 1 3 2 1 0 2 4 2 4 6 3 5 3 4 5 1 0 1 8 7 1 1 7 6 2 4 4 4 3 4 6 6 6 6 8 11
3 3 3 4 4 5 6 5 5 5 5 5 5 6 8 9 9 9 10 13 13 13 11 11 10 6 6 8 5 2 3 5 10 16 15 11 7 4 4 7 7 7 6 6 6 5 5 3 3 4 0 1 2 2 1 1 2 2 4 1 6 7 5 5 3 3 3 2 3 2 7 6 2 6 10 3 1 3 3 5 5 6 6 5 6 6 6 10
3 3 3 3 4 4 5 4 4 5 5 5 4 6 9 9 10 11 12 13 12 9 7 6 3 1 3 5 1 1 3 5 9 15 17 12 7 3 2 6 6 6 6 6 6 6 7 5 4 6 1 4 1 1 2 4 4 1 3 3 4 7 4 4 2 4 4 2 6 3 4 9 6 10 10 2 4 4 3 6 7 6 6 6 7 6 7 10
4 4 3 3 3 4 4 3 3 4 5 6 7 9 10 11 12 11 11 10 7 4 3 2 0 1 3 1 2 1 3 5 9 16 21 16 8 1 2 5 3 4 7 7 5 7 7 3 6 6 2 4 1 2 4 6 4 0 2 2 3 3 3 5 4 5 5 3 7 5 2 10 10 10 7 4 6 6 6 8 7 7 7 7 7 7 8 10
5 5 5 3 3 3 2 2 4 5 7 10 12 12 11 11 10 9 9 7 5 3 3 3 2 3 4 1 1 1 4 7 10 17 21 17 9 4 7 7 2 3 7 7 4 6 7 4 7 5 2 3 4 5 4 4 4 3 2 2 4 1 4 8 5 5 4 3 6 5 4 10 12 10 4 3 5 6 7 9 8 8 9 8 7 8 8 9
4 5 5 3 3 3 3 4 5 6 9 11 12 11 9 9 8 8 7 7 6 4 3 2 1 4 4 1 2 2 4 8 12 15 17 13 7 8 13 9 4 6 6 5 5 5 9 8 5 3 2 5 6 4 4 4 4 4 2 1 3 3 4 6 4 4 3 3 5 3 3 8 10 8 2 4 5 6 8 11 9 9 9 9 8 7 7 7
4 4 4 3 3 4 5 6 7 8 10 11 10 7 6 6 5 5 6 7 7 6 6 4 2 4 3 2 2 3 5 9 11 15 16 10 6 10 11 5 5 8 4 8 8 5 8 7 1 1 4 5 3 3 4 4 4 4 3 2 2 2 3 5 4 4 6 3 4 2 4 11 15 13 7 4 6 7 9 12 10 9 9 8 7 7 7 7
3 3 3 3 3 5 6 8 9 10 11 10 9 8 9 9 7 6 5 4 2 3 5 5 5 3 2 4 2 5 10 10 9 14 15 8 6 9 9 5 4 7 4 6 8 6 5 4 2 2 4 5 4 5 4 2 2 2 2 2 3 3 2 4 5 4 8 6 5 5 6 14 18 18 14 6 7 8 11 11 9 8 8 7 7 7 7 8
3 3 2 3 5 6 8 10 10 11 12 12 12 11 10 10 8 7 8 7 2 1 1 3 4 3 2 4 5 9 10 6 7 14 16 11 6 6 8 7 5 6 5 3 5 5 3 3 5 4 2 4 3 4 5 5 4 2 3 2 3 4 4 6 6 4 6 6 7 7 7 13 17 19 18 8 6 8 10 9 8 8 7 7 7 7 8 9
4 4 3 2 4 6 9 11 10 11 12 12 10 6 4 4 5 5 9 9 2 1 1 1 1 1 2 3 7 11 7 2 5 13 19 14 6 4 7 8 7 7 5 0 3 3 4 4 3 2 3 3 3 3 4 4 4 4 2 2 3 4 5 6 5 5 5 5 6 6 7 14 16 17 17 11 3 6 9 9 9 9 7 7 8 8 9 10
5 4 4 2 3 7 11 12 10 9 8 7 5 2 2 3 3 0 2 4 1 1 2 2 2 1 2 3 7 9 3 2 6 14 21 14 5 3 5 6 6 5 4 2 3 3 5 5 1 5 7 5 2 3 4 4 3 3 2 1 3 3 6 6 2 4 5 4 6 5 9 17 16 13 14 9 4 6 8 8 9 9 8 6 7 9 9 9
4 4 3 1 3 8 11 12 9 7 4 3 3 3 4 4 4 4 4 2 2 3 3 1 1 2 3 2 6 6 3 4 7 13 20 15 6 3 2 5 6 1 5 3 1 5 5 2 5 6 5 4 4 4 4 4 4 3 2 0 3 3 5 6 2 3 5 2 6 7 10 16 16 11 11 7 4 6 6 6 7 7 7 6 7 8 8 8
4 3 1 1 3 7 10 12 10 6 3 1 2 5 6 6 6 5 5 4 1 3 3 3 3 3 4 3 6 6 5 4 3 9 18 14 5 3 3 5 5 2 6 4 2 3 2 2 5 4 4 5 3 4 5 4 3 1 1 0 4 3 2 4 3 5 5 1 4 7 8 12 10 7 8 6 4 6 5 6 7 6 8 8 7 6 7 8
5 2 1 1 4 7 10 12 9 4 2 4 4 7 9 9 7 4 4 4 0 1 1 1 1 0 1 2 6 5 3 1 1 6 14 9 2 2 4 3 4 4 4 3 5 5 0 4 2 4 4 4 2 3 5 4 3 2 3 3 3 3 2 4 5 7 5 2 2 6 7 7 5 6 7 6 4 6 5 5 7 5 6 7 6 6 7 8
6 3 2 2 5 8 10 10 7 4 1 3 4 8 11 9 4 3 4 3 1 2 2 1 1 0 1 3 6 2 2 1 1 4 8 7 2 1 2 2 3 3 2 0 4 4 1 3 2 4 5 4 2 2 1 4 2 4 3 5 5 4 3 4 6 7 5 4 3 4 5 6 5 6 6 6 8 9 7 6 8 7 5 5 6 7 6 6
6 4 3 2 5 9 10 6 5 5 1 1 3 8 10 7 2 3 4 4 1 3 3 1 1 2 2 4 6 1 3 2 3 2 4 5 2 2 2 1 2 2 4 2 2 1 1 2 3 3 3 4 3 2 4 4 3 2 3 4 6 4 2 2 4 4 2 4 4 3 3 4 7 6 6 5 8 10 8 8 8 8 7 6 5 6 6 6
6 4 2 3 6 10 7 2 5 7 1 2 6 9 8 6 3 4 3 4 2 1 1 1 1 3 2 3 4 2 1 4 3 2 3 4 3 2 3 1 1 1 2 2 2 1 2 2 3 3 4 3 0 2 4 6 5 2 3 4 3 1 3 2 1 1 2 4 5 2 4 2 6 6 6 5 7 9 9 10 9 8 9 9 8 7 6 6
6 3 2 4 7 9 5 2 6 8 2 3 8 10 8 5 2 3 4 3 1 0 1 1 0 2 2 3 5 4 0 3 1 1 3 5 3 2 3 2 4 2 0 3 1 2 2 1 2 3 3 1 3 4 6 7 2 5 4 4 1 2 3 2 3 2 1 2 5 3 3 1 6 6 4 4 4 7 9 11 11 9 10 10 9 9 8 6
6 2 2 6 8 7 3 2 6 6 2 3 8 10 8 4 2 4 4 2 1 1 0 1 0 2 4 4 5 4 2 2 1 3 5 5 3 4 3 3 6 4 1 3 3 3 1 3 5 6 3 4 5 4 5 6 0 3 4 3 2 3 2 3 3 2 2 3 4 5 2 1 5 6 5 4 3 5 8 9 9 8 8 8 8 9 9 7
6 1 2 5 7 6 3 2 5 4 2 5 9 10 7 2 4 5 1 2 0 0 1 1 0 2 6 5 4 5 3 2 3 4 4 2 3 6 4 2 5 5 1 3 1 3 1 1 3 4 3 5 3 1 3 4 1 1 3 2 4 4 4 3 2 3 3 2 5 5 2 2 3 5 4 1 2 3 5 7 9 9 9 9 8 8 8 8
7 3 1 3 5 5 3 2 4 5 3 8 12 8 4 2 5 5 1 3 1 1 1 2 2 4 7 4 2 4 3 4 5 4 3 2 4 6 4 1 3 4 3 5 2 4 4 1 2 2 2 3 3 2 1 1 2 3 2 3 3 4 3 3 4 3 2 4 5 4 1 2 2 6 5 3 3 4 4 6 8 10 10 9 8 7 8 7
9 7 2 2 3 4 2 2 4 5 7 12 10 5 4 2 1 2 2 3 1 2 0 1 2 3 4 2 1 3 3 3 3 4 2 2 3 3 2 1 2 4 4 2 3 5 3 3 3 3 1 3 3 1 3 4 4 3 2 3 4 4 4 3 3 1 2 4 3 1 1 0 5 7 7 6 7 7 4 4 6 7 8 9 9 8 7 7
8 8 6 2 1 2 3 3 5 8 11 11 6 5 6 4 2 4 2 2 1 1 1 2 1 2 2 1 1 3 2 1 2 3 1 0 2 1 1 1 4 2 1 2 2 5 4 4 3 1 1 1 4 3 2 2 1 1 0 2 2 2 3 4 4 3 4 4 2 2 2 2 4 5 5 6 5 6 6 5 4 4 4 6 7 7 8 9
6 7 7 5 4 2 2 3 8 12 11 7 4 4 4 1 4 3 2 3 1 2 2 2 2 2 2 0 2 2 0 1 2 3 1 1 2 0 2 2 1 2 2 2 1 1 2 4 3 2 1 1 3 4 3 3 2 2 2 4 3 3 1 4 4 2 5 4 3 4 1 3 2 2 5 6 5 4 4 4 2 1 3 4 6 7 9 10
4 5 6 6 5 4 3 5 10 12 8 4 6 4 3 4 4 2 3 4 1 1 1 1 3 3 2 2 2 1 1 1 2 2 2 0 1 2 2 3 2 2 3 1 2 1 1 5 5 2 0 3 2 2 3 4 1 1 2 4 1 3 3 2 3 4 2 4 3 3 3 4 4 4 3 2 3 4 6 7 8 9 9 8 9 9 9 8
3 4 5 5 4 3 3 6 10 8 4 5 5 2 4 4 2 3 3 2 3 3 2 1 3 3 2 4 3 2 1 1 1 2 2 2 3 3 2 3 3 3 4 2 2 1 1 5 5 2 1 2 2 2 1 1 0 1 1 1 3 3 5 2 2 1 3 2 4 1 3 5 4 4 3 5 6 7 10 9 9 10 11 11 10 9 9 9
2 3 4 5 4 2 3 6 8 5 4 6 4 3 5 3 2 3 2 2 2 4 5 1 0 1 2 2 3 2 1 2 2 2 2 2 2 3 3 2 2 2 3 3 2 2 2 4 5 1 0 1 1 2 2 2 2 3 2 4 3 2 4 3 1 3 3 2 4 2 4 5 4 4 5 7 8 9 10 9 10 10 10 10 9 9 10 10
1 2 3 5 4 2 4 5 5 4 5 5 1 4 3 2 1 2 2 1 2 3 4 3 2 1 2 1 3 2 0 2 2 2 1 2 2 3 4 2 1 1 1 2 0 0 3 2 6 1 2 3 2 2 2 3 2 3 3 3 2 1 1 1 1 1 1 3 5 4 5 4 2 4 3 7 7 8 9 9 10 10 9 9 8 9 11 11
1 2 2 4 3 2 4 4 3 5 5 2 2 3 1 1 1 1 1 1 2 3 2 3 1 1 3 3 3 2 1 2 1 1 1 1 2 2 4 3 2 1 1 2 2 1 2 1 5 3 1 3 3 1 2 2 3 3 1 2 1 3 3 1 1 2 2 2 4 4 6 4 5 6 2 4 3 5 7 7 7 8 8 7 7 8 8 8
1 1 1 4 3 2 3 2 3 5 4 2 4 2 1 1 2 1 1 1 1 1 1 3 2 1 3 4 2 1 1 2 3 1 2 2 2 3 3 3 4 3 0 2 2 1 2 2 4 5 3 1 1 2 5 5 2 2 0 1 1 1 1 0 1 2 4 2 2 2 6 5 5 3 6 7 4 5 5 6 6 6 6 6 6 6 6 5
2 2 2 3 3 2 3 4 3 3 3 2 2 2 1 0 1 1 2 1 0 0 1 3 3 3 3 2 2 2 2 2 3 2 3 3 2 3 1 3 6 5 3 2 1 1 1 3 3 4 3 3 4 3 4 6 6 5 4 4 3 3 2 0 3 2 2 3 4 2 5 8 4 2 6 8 5 4 4 4 5 6 6 5 5 5 4 4
3 1 3 3 1 2 4 4 1 1 3 1 1 1 1 1 1 0 1 1 1 0 1 1 2 3 3 2 2 3 2 2 2 2 3 4 4 3 1 2 5 6 5 2 3 3 3 3 1 5 5 5 5 3 0 3 4 4 3 3 3 4 4 4 3 4 1 2 2 3 2 6 2 4 6 6 5 5 4 3 4 5 4 5 7 7 5 4
2 2 1 3 1 0 5 2 3 2 0 2 1 1 1 1 1 1 1 1 1 1 1 1 2 3 2 2 2 3 3 3 4 4 3 3 4 3 2 1 4 5 4 2 2 2 2 2 1 5 5 3 4 4 3 2 3 2 1 2 4 3 4 5 6 3 1 3 2 2 4 5 0 5 6 6 5 4 3 3 5 5 5 6 9 8 6 5
2 2 1 3 3 1 3 2 3 1 2 2 2 1 2 1 2 3 2 3 2 2 1 2 2 1 1 1 2 3 4 2 3 4 3 3 3 1 3 1 3 3 2 3 3 2 2 1 1 3 6 6 6 6 5 4 0 2 3 2 3 4 5 3 2 3 1 5 5 4 6 6 4 4 4 6 4 5 5 5 5 5 6 7 8 7 5 5
1 1 2 3 4 4 3 4 4 3 1 1 1 3 2 1 2 4 4 3 2 3 2 1 1 1 2 2 1 2 4 3 3 2 0 2 3 2 4 4 0 2 2 2 2 1 2 2 2 2 3 4 5 5 4 3 2 2 2 2 4 4 6 3 1 2 2 4 4 6 7 8 5 1 6 10 9 9 10 8 5 4 5 7 8 7 5 5
1 1 2 4 5 5 2 1 4 4 3 3 1 3 2 2 2 1 3 3 3 3 1 1 1 2 2 1 1 3 4 3 2 1 1 3 4 2 1 3 2 1 0 1 1 3 2 1 3 6 7 6 8 7 2 1 1 5 6 4 5 5 5 4 3 3 4 1 2 7 8 10 12 7 7 9 7 7 8 8 8 7 8 9 8 7 5 5
1 1 1 1 3 3 2 2 2 3 2 3 2 2 3 3 3 1 2 2 1 2 1 1 2 3 3 4 3 3 3 1 1 2 3 5 3 2 2 0 2 2 2 1 1 3 3 2 5 7 9 10 10 9 2 1 4 9 9 7 6 6 6 5 5 8 3 1 7 11 6 7 12 6 6 8 8 7 7 7 7 8 9 9 9 7 5 5
1 2 2 2 1 1 0 2 2 4 2 2 2 2 2 3 2 2 2 1 2 1 2 1 3 7 8 6 4 3 1 0 2 4 3 2 2 1 2 0 0 3 2 1 1 3 4 3 4 5 6 10 10 10 7 5 7 8 9 11 9 6 8 9 12 12 6 4 12 14 8 10 11 4 4 6 7 7 8 7 7 7 8 10 9 6 5 6
1 0 1 1 0 3 2 1 2 5 3 2 1 3 4 4 5 5 2 2 2 3 3 3 7 9 9 6 4 3 4 3 3 5 3 2 2 1 1 2 1 2 2 2 1 2 4 3 3 3 4 9 10 11 9 7 6 7 9 11 10 8 10 11 13 12 9 11 15 14 15 16 9 2 4 6 5 6 6 6 7 8 10 11 9 5 5 7
1 1 1 2 2 1 1 2 4 4 2 1 2 4 4 5 7 4 2 5 3 2 3 6 8 6 7 7 6 6 8 8 3 3 5 4 2 3 3 3 2 2 2 2 1 1 1 2 1 3 3 7 6 5 4 5 6 8 11 11 8 8 9 9 9 8 6 9 12 10 13 13 5 1 5 6 5 6 7 8 9 9 11 11 8 5 6 8
1 1 3 3 0 1 1 2 3 3 1 2 4 4 3 5 7 4 3 6 7 6 8 9 6 2 3 5 8 11 11 8 4 2 7 6 3 3 4 3 5 5 2 2 1 1 2 2 1 4 3 6 3 3 3 5 5 8 13 12 8 7 6 5 6 6 6 6 7 6 7 7 3 4 7 7 7 9 10 10 9 10 12 10 6 5 7 9
2 0 2 3 1 2 2 1 2 2 2 3 4 5 3 4 5 4 2 3 3 4 7 9 6 3 2 4 10 13 9 5 5 4 5 4 1 2 2 2 6 6 6 5 1 1 4 2 1 2 1 6 3 3 4 6 5 7 10 7 6 6 5 4 4 4 5 5 4 5 5 4 3 6 7 9 11 11 10 9 9 11 14 9 5 5 8 9
Wind_Direction
155 163 226 305 291 264 250 247 245 246 246 246 250 252 254 255 257 258 259 262 259 260 255 248 242 230 214 188 120 121 139 114 58 36 39 16 359 354 347 339 336 341 343 345 343 349 1 34 23 22 81 101 15 320 305 151 111 71 107 124 223 198 203 194 193 202 188 263 282 313 358 119 284 301 127 9 31 46 326 319 282 310 294 244 295 301 179 172
157 169 18 327 297 271 254 248 246 245 243 241 246 247 252 254 256 259 256 256 250 247 241 234 228 213 198 162 135 123 140 112 52 41 26 6 3 358 348 342 334 337 343 348 351 360 17 348 348 18 68 77 332 356 7 277 135 122 124 132 225 206 213 200 191 208 194 257 280 304 258 187 235 200 119 246 305 3 296 277 318 313 272 215 304 208 168 170
158 138 74 8 341 15 261 246 242 240 233 227 233 237 247 254 252 254 246 242 231 223 222 219 208 194 176 151 130 127 147 86 50 19 5 3 2 354 350 343 333 335 339 342 342 343 344 300 321 25 55 32 300 359 25 313 196 162 127 199 244 216 227 228 199 226 237 261 298 311 289 215 231 179 148 205 254 323 227 246 238 256 247 179 153 171 171 174
165 120 70 39 45 47 32 21 8 219 181 204 225 244 249 254 250 249 244 230 212 207 208 204 198 188 167 147 127 134 135 65 28 335 356 1 353 353 350 341 337 337 334 336 337 331 312 292 311 79 73 354 315 16 345 292 227 164 141 195 246 217 231 244 204 240 267 248 250 296 334 296 264 186 184 159 169 275 243 240 225 237 231 168 175 182 180 182
85 71 62 37 40 39 34 42 49 70 105 251 250 254 242 241 236 229 229 213 195 192 192 187 188 176 154 137 131 135 92 52 334 342 358 355 349 350 346 342 344 338 334 339 341 343 331 325 79 63 62 18 344 27 260 291 98 151 198 204 232 189 239 272 226 276 304 264 283 341 322 290 326 311 187 161 202 246 230 246 246 245 212 169 177 180 185 191
46 48 68 41 29 30 29 40 45 42 2 321 278 237 216 218 209 201 203 194 180 177 178 177 175 163 148 131 135 119 93 116 325 353 354 350 350 346 344 345 350 342 336 351 1 24 48 43 62 56 52 52 11 18 261 310 47 208 265 250 237 190 207 293 351 354 24 44 331 316 283 324 15 300 227 178 225 234 214 242 255 253 203 171 170 176 188 195
47 33 60 41 23 25 25 32 32 27 27 33 37 42 49 176 174 186 194 178 166 164 160 157 154 149 138 128 125 70 91 137 337 353 348 352 353 345 351 352 353 342 343 28 15 42 72 41 53 106 79 49 61 234 291 319 20 114 238 268 253 182 189 337 24 17 40 41 291 291 312 318 265 281 350 228 245 248 252 259 249 237 179 163 168 182 195 199
14 9 26 21 19 21 23 29 27 29 41 45 44 40 30 72 155 172 171 160 152 146 142 143 145 144 140 141 130 48 47 324 344 351 346 354 357 357 6 11 9 360 36 39 12 70 96 48 60 127 77 42 171 184 330 339 16 88 197 232 83 359 321 360 36 28 20 324 320 346 305 273 235 245 329 257 251 251 270 319 101 141 147 165 181 191 198 204
326 335 354 5 13 16 19 25 27 40 50 51 54 51 55 79 122 136 137 140 134 130 128 129 135 138 143 141 104 54 338 330 352 351 348 353 357 10 19 24 26 26 46 34 19 46 94 93 204 169 153 197 152 103 346 5 311 175 149 160 72 339 330 4 16 9 350 301 4 355 287 280 253 247 276 258 250 245 255 75 96 129 153 188 192 196 200 205
309 318 337 354 6 11 15 22 32 51 52 54 60 60 70 82 98 109 118 122 120 121 119 128 142 148 166 147 76 71 319 1 4 354 350 348 346 2 17 23 25 27 37 31 34 49 74 169 228 149 140 153 97 20 353 50 261 150 99 98 69 345 330 21 346 330 336 286 1 336 277 279 286 334 264 265 250 177 127 118 134 155 185 204 200 207 207 209
309 316 330 346 3 7 12 22 38 58 55 55 62 67 79 86 96 105 112 115 116 115 113 125 136 135 140 107 90 94 351 16 10 359 350 341 340 339 1 13 15 19 24 28 37 43 40 199 193 120 115 78 80 5 356 117 117 113 105 112 358 356 354 18 9 335 349 293 8 301 267 272 30 234 241 261 243 156 152 182 213 206 214 218 214 219 214 218
330 333 335 349 2 5 14 27 48 66 63 62 73 86 92 93 97 102 112 120 118 112 110 114 120 121 91 76 90 110 13 14 4 359 354 347 341 325 344 356 358 5 2 11 10 13 18 353 96 101 274 139 114 358 56 92 72 102 71 24 317 2 21 358 355 318 356 325 309 324 286 287 156 224 251 273 150 150 157 205 224 226 229 229 224 228 224 226
10 3 353 357 4 8 17 33 68 82 80 82 100 107 102 99 97 101 114 123 118 103 105 110 121 195 76 62 108 104 21 3 353 356 2 360 343 300 316 337 339 353 347 344 341 352 357 336 90 106 118 105 129 296 95 39 48 144 44 59 329 4 13 337 336 311 354 342 327 19 307 293 240 235 259 249 150 146 183 227 233 229 231 233 228 231 231 228
28 23 16 12 10 15 19 45 91 98 92 94 109 112 104 97 95 100 112 120 114 85 86 97 133 153 91 81 200 85 350 342 349 357 1 359 358 293 291 335 332 352 351 342 343 359 351 337 91 93 91 88 87 11 39 8 23 30 350 51 19 5 293 316 342 348 7 351 358 47 248 282 274 262 260 213 163 162 211 235 234 232 233 234 229 229 235 230
27 25 25 23 25 31 45 100 114 107 107 109 112 110 99 91 94 100 105 104 96 94 104 96 120 121 78 56 220 312 323 339 351 358 358 353 10 20 336 344 350 351 352 350 20 39 31 78 82 55 314 11 41 50 23 349 13 28 353 327 356 2 284 317 345 30 20 301 3 39 243 279 283 277 259 186 174 182 227 242 233 237 235 233 235 230 236 239
15 20 23 34 55 73 121 142 132 119 122 124 119 111 93 86 95 101 104 91 78 90 100 72 92 104 86 39 307 343 343 344 346 354 355 352 10 358 341 348 355 350 7 37 70 79 47 56 70 38 1 17 46 66 26 8 359 6 50 301 310 335 314 319 339 34 30 293 347 25 238 282 281 271 234 155 181 197 236 252 240 239 240 234 237 234 238 248
350 356 14 42 83 111 140 146 138 131 132 135 129 112 87 85 92 104 115 95 73 73 76 58 44 91 73 360 350 348 331 332 341 352 357 360 5 357 357 8 350 349 42 66 56 58 28 34 89 34 45 38 52 72 38 8 323 330 28 27 290 300 312 315 312 348 24 22 326 325 238 266 270 274 280 209 198 217 242 256 249 240 243 237 237 242 243 244
339 324 360 51 99 121 140 145 140 133 133 132 121 104 93 92 92 102 117 112 62 47 62 35 36 85 4 350 344 308 315 324 345 358 2 7 5 15 30 33 348 360 39 46 32 33 13 18 73 41 27 20 27 64 77 228 244 288 320 357 317 304 276 285 280 317 17 21 301 295 266 269 277 284 288 251 202 224 246 256 259 251 247 242 237 236 236 238
352 339 355 56 102 123 142 148 139 131 130 127 123 114 102 93 85 77 65 62 47 14 33 340 32 122 265 310 312 316 321 332 359 3 7 8 357 26 43 29 20 42 51 22 6 22 22 20 45 52 14 356 16 94 126 179 165 162 210 193 259 290 277 261 260 286 355 346 286 273 267 278 289 293 296 289 207 219 254 265 266 260 249 241 233 229 231 232
356 355 348 27 101 134 150 151 142 137 135 133 132 117 99 83 50 26 33 45 65 105 94 227 130 115 309 305 324 339 343 10 20 9 8 4 350 20 25 16 27 47 55 59 321 7 69 63 54 152 205 229 221 172 131 137 129 118 138 193 250 268 279 268 265 288 342 348 276 261 282 284 286 287 291 302 274 233 258 269 267 261 251 241 234 232 230 230
352 350 337 355 107 139 156 155 146 144 144 153 159 117 164 152 70 13 20 34 341 7 50 215 191 46 317 299 335 351 3 18 6 8 10 4 360 26 358 14 45 34 6 253 272 354 62 79 158 214 203 198 189 159 130 108 91 87 140 257 294 256 262 266 251 296 357 14 281 299 317 293 289 291 291 307 315 257 244 250 263 264 259 247 238 241 237 238
345 341 329 301 130 143 160 159 148 146 144 187 201 134 152 160 122 145 133 85 325 5 30 318 21 355 315 332 348 357 47 26 350 353 4 6 19 44 360 39 70 40 343 350 340 11 39 100 230 229 184 126 63 85 105 98 94 77 109 119 301 268 279 290 290 326 352 354 290 329 329 295 295 298 290 295 274 256 243 238 259 272 275 262 240 242 244 250
341 340 341 242 157 148 163 162 153 145 105 48 151 134 131 125 126 128 96 97 300 342 17 16 38 344 333 10 0 11 57 44 336 332 354 5 24 59 79 60 63 37 0 20 117 89 44 250 233 208 141 120 64 43 63 65 70 82 137 80 286 288 332 300 302 330 324 281 283 312 307 290 303 317 295 280 248 268 275 258 261 259 261 264 253 245 239 244
355 14 41 197 159 150 162 164 164 163 65 46 93 128 131 121 122 116 81 83 7 305 341 335 147 172 323 345 351 13 85 84 220 320 351 17 60 43 87 106 71 47 1 27 107 110 182 256 168 94 74 116 149 9 63 75 350 298 207 184 233 265 252 243 289 322 324 6 322 318 319 295 325 358 311 299 317 311 313 305 301 285 265 275 280 264 243 241
14 32 50 153 160 161 165 167 183 199 156 44 97 129 132 126 118 100 87 70 343 305 329 281 203 27 259 342 346 349 118 54 224 289 346 28 63 17 71 121 83 82 240 324 68 79 266 267 125 85 40 68 115 293 167 138 350 311 232 192 188 203 229 259 318 339 354 356 331 9 8 296 314 350 295 304 344 326 334 349 326 322 323 314 295 280 269 263
19 30 55 137 162 166 166 173 210 203 205 317 163 149 146 145 108 87 91 62 343 287 329 244 201 353 313 345 347 354 82 360 283 311 1 24 31 94 82 344 42 102 196 172 50 119 172 3 53 107 86 66 70 274 233 150 93 313 242 178 155 151 212 291 344 6 358 291 291 70 107 265 311 324 279 298 332 317 328 344 327 328 340 338 310 296 295 287
18 27 75 145 156 161 164 193 205 187 193 257 184 167 170 166 105 79 76 41 352 248 4 258 251 24 328 329 352 91 84 312 311 23 34 18 345 85 87 302 22 77 173 115 24 219 163 39 33 78 85 76 27 266 224 142 109 261 219 145 140 204 266 266 99 118 240 277 316 16 138 218 298 287 276 311 326 320 333 337 332 336 339 344 337 320 309 291
14 28 124 160 157 163 183 235 190 179 182 204 177 175 181 168 112 66 84 78 318 126 78 289 321 39 339 353 35 82 239 317 40 318 360 37 2 47 80 195 163 136 57 106 304 274 147 178 219 165 96 113 232 225 189 141 120 255 202 148 227 281 245 179 138 185 282 351 327 305 135 157 276 272 305 342 338 329 331 327 327 333 335 341 345 338 333 314
10 25 147 167 170 173 198 228 194 183 182 176 167 176 182 158 73 57 83 132 290 46 117 327 103 334 343 10 18 22 351 357 73 289 337 46 30 42 85 178 134 121 20 103 189 241 171 223 203 158 151 219 233 230 181 151 165 238 164 117 33 45 68 91 107 137 47 25 266 247 153 143 273 279 314 353 29 343 323 317 315 319 325 334 346 345 344 341
13 359 162 170 180 188 207 237 216 197 180 171 167 167 165 108 58 67 74 232 221 300 238 27 311 333 19 34 347 358 28 339 322 320 344 36 6 32 91 157 96 111 324 21 199 238 321 288 192 148 180 201 187 169 170 170 273 93 107 38 23 40 45 49 71 94 60 318 255 246 195 121 297 281 271 276 66 358 318 308 315 328 332 337 350 350 346 346
25 18 189 184 183 194 220 244 215 204 178 161 158 146 120 55 62 96 204 247 162 311 349 39 339 13 41 56 317 349 14 326 324 357 10 1 354 17 55 62 51 63 359 356 329 296 341 355 239 258 214 148 113 75 97 18 27 77 74 28 8 352 17 21 354 44 84 264 268 267 226 115 252 263 264 272 301 320 293 282 307 326 330 335 346 347 344 345
30 29 49 194 191 195 218 226 195 178 156 151 143 102 80 51 352 160 266 314 356 296 357 63 333 36 49 47 319 321 327 324 358 45 53 19 18 15 44 163 154 34 354 306 320 328 307 236 269 307 231 141 115 61 344 7 43 63 48 46 27 344 358 356 317 332 199 241 272 317 355 202 238 257 282 297 308 318 306 288 295 303 322 340 350 348 346 351
30 31 40 71 158 200 209 203 179 159 151 146 118 56 78 84 242 216 265 326 359 307 66 78 14 70 70 6 317 296 283 286 11 46 137 84 54 25 329 214 168 83 339 233 336 351 326 296 305 320 261 173 137 147 304 337 54 11 221 104 79 25 6 312 285 300 283 262 283 326 323 277 274 275 265 263 287 308 314 322 293 271 313 340 345 348 354 2
30 35 38 56 72 95 155 165 162 155 150 133 81 63 88 151 230 203 255 260 265 356 41 78 38 40 75 153 282 292 324 296 350 22 347 10 47 318 299 296 198 114 98 103 34 48 2 306 271 192 222 147 154 173 167 140 136 234 174 127 143 152 162 265 244 259 288 289 300 312 277 205 236 234 226 247 279 301 317 335 353 357 357 356 359 7 7 4
25 37 41 55 65 69 102 146 155 153 145 98 63 78 148 231 237 191 228 233 204 20 14 60 69 49 358 310 303 316 138 272 332 16 353 349 178 195 216 240 209 133 110 95 277 145 119 270 265 293 69 131 165 206 130 104 76 253 144 105 152 177 157 222 210 195 269 322 301 275 229 213 223 237 247 306 336 360 8 8 19 17 14 20 18 14 9 0
12 35 50 53 57 66 101 143 151 150 126 83 67 89 200 228 231 183 200 168 141 150 128 44 68 78 309 303 328 356 27 272 322 354 298 241 212 196 193 218 193 149 134 140 229 156 56 280 286 351 17 112 148 195 80 41 217 138 115 175 219 176 126 116 276 316 60 339 281 256 257 285 322 303 310 31 31 19 14 10 18 17 14 20 17 6 2 359
1 45 57 38 38 84 126 146 151 147 90 84 99 218 220 222 176 177 182 89 132 131 114 140 229 150 234 278 296 306 337 289 315 341 267 263 240 190 183 228 185 167 178 162 218 197 144 276 295 37 182 312 162 154 29 17 134 118 169 223 213 105 82 97 301 344 33 273 275 293 263 287 344 303 314 19 25 13 8 7 15 16 16 16 7 0 360 358
359 58 59 30 33 111 135 147 147 117 78 77 160 246 223 206 160 155 162 127 127 89 96 165 208 193 191 202 267 261 230 271 313 355 254 263 261 171 153 184 151 138 222 140 182 254 118 271 300 359 167 309 360 93 360 348 59 111 192 214 124 125 292 46 134 295 339 283 287 297 283 278 219 235 328 19 18 7 4 9 15 11 8 6 358 358 357 357
359 30 30 16 24 111 139 157 133 74 72 99 230 253 229 226 275 203 188 168 113 106 129 204 187 84 171 173 217 229 195 232 248 359 240 230 269 196 157 176 167 153 305 108 148 211 104 150 286 299 230 314 3 95 231 297 24 42 310 315 47 165 196 170 153 183 188 268 289 309 316 294 226 215 125 84 59 31 16 12 11 358 354 354 351 355 352 354
21 35 311 352 29 135 150 138 66 59 78 174 205 220 278 266 275 283 255 244 140 131 192 200 166 150 194 198 222 217 138 199 186 184 239 230 272 254 201 163 151 156 358 52 110 175 80 129 250 294 327 315 278 208 194 182 144 94 101 277 287 206 188 236 235 149 138 194 233 292 300 277 242 208 130 122 101 71 52 24 1 337 342 346 344 346 345 353
58 47 287 349 48 160 128 77 45 65 111 172 199 218 283 213 168 323 321 320 235 261 163 167 169 178 184 197 233 201 151 187 191 201 244 236 237 247 228 138 153 154 122 76 81 214 150 158 220 284 313 237 242 244 191 176 165 152 171 201 192 155 134 184 285 290 112 179 187 188 275 275 256 168 128 126 114 90 73 42 1 329 334 344 341 342 345 356
75 77 287 7 63 190 91 74 359 75 117 183 230 235 286 88 128 257 329 7 29 52 80 120 169 180 173 174 198 183 163 194 199 196 231 230 214 224 314 78 139 135 118 151 233 226 155 115 214 267 254 232 262 312 124 162 143 133 169 192 147 131 137 150 227 266 290 213 169 124 266 286 280 125 115 114 112 93 73 34 4 334 329 348 349 348 354 358
105 197 294 22 348 173 82 73 289 353 73 246 277 276 256 112 121 156 218 231 203 124 12 284 196 198 210 174 153 174 193 199 189 195 224 239 227 238 315 59 144 124 105 160 233 226 146 95 307 279 288 305 331 353 17 50 89 117 212 159 140 153 149 158 184 189 213 226 171 105 267 281 182 125 109 111 124 104 66 7 4 353 343 356 352 344 341 341
152 210 289 11 342 76 108 171 217 250 275 305 8 304 259 204 168 165 198 228 209 156 166 229 210 201 206 131 128 190 211 211 206 214 216 213 228 318 17 36 168 156 148 190 190 187 211 181 92 320 322 333 344 355 353 345 358 201 236 204 167 137 107 116 166 110 277 236 173 168 256 261 178 147 64 51 48 29 19 10 16 11 351 347 343 331 321 330
123 291 295 339 17 71 141 184 158 161 211 53 343 266 243 244 206 175 183 210 199 173 175 248 222 118 98 98 86 223 226 222 229 256 318 223 255 343 20 2 289 194 233 216 172 145 204 198 146 183 267 281 287 296 306 298 257 238 246 195 184 156 137 158 177 111 241 247 156 170 243 268 239 200 19 17 12 1 356 356 4 3 339 329 330 323 317 332
138 312 300 325 12 60 91 137 107 122 158 143 282 272 202 223 279 206 182 199 189 166 162 267 161 97 87 145 206 254 244 224 225 309 268 239 267 287 308 343 24 146 234 127 86 79 105 218 207 197 206 218 237 247 237 86 282 278 273 229 196 186 162 136 109 176 210 259 271 227 229 265 276 297 357 360 2 354 342 343 342 336 332 330 328 321 315 329
146 197 170 302 342 30 24 352 88 109 161 171 193 244 203 222 289 338 197 218 208 154 170 196 168 172 183 177 195 235 235 205 220 263 238 230 252 278 265 73 67 9 5 80 110 96 101 275 242 207 221 238 248 258 272 43 270 265 270 262 226 189 164 158 196 223 204 58 280 259 222 247 275 308 2 341 341 342 329 330 326 321 324 323 320 314 311 320
164 206 158 121 263 231 234 267 162 121 123 171 175 203 204 214 231 213 206 275 319 214 185 220 227 211 196 172 162 196 205 153 245 242 244 241 242 312 338 158 167 341 11 57 346 108 131 253 244 196 241 259 262 271 270 258 258 256 261 267 259 208 179 197 226 233 212 209 257 270 279 277 281 313 356 323 320 316 311 313 305 303 310 313 314 308 304 316
102 192 301 39 206 191 184 277 118 122 144 170 191 220 198 201 225 228 180 93 317 260 190 226 251 225 201 184 162 183 196 188 247 251 216 193 200 175 304 249 243 346 47 112 353 131 153 241 233 174 271 272 259 261 258 250 261 268 260 256 255 235 209 215 237 241 227 236 254 272 286 283 280 302 315 303 290 283 288 298 302 308 315 317 316 306 306 320
152 201 231 43 39 147 108 36 93 119 165 186 232 241 201 195 219 238 175 157 196 246 182 222 249 220 192 197 190 216 216 190 219 266 179 172 230 202 211 215 160 52 38 131 224 253 190 253 193 110 312 281 264 263 255 235 243 264 267 257 249 254 240 225 240 242 231 248 259 268 280 278 264 287 304 298 288 294 306 313 315 318 316 315 308 296 309 319
173 177 147 114 67 209 82 38 102 124 205 215 216 233 228 214 211 209 223 196 177 168 181 207 230 143 136 197 211 237 239 203 198 220 167 177 226 208 216 205 142 136 160 173 185 170 175 250 7 64 347 280 288 30 326 281 260 261 270 264 241 237 233 211 221 215 193 227 265 278 274 267 272 312 309 304 306 313 316 316 318 315 312 310 297 290 307 314
161 47 103 110 260 249 133 89 98 131 221 225 209 218 231 241 220 193 240 249 180 179 193 192 178 116 101 202 222 239 249 214 209 211 168 167 156 134 177 172 134 140 165 170 167 164 155 165 144 84 298 272 291 353 312 311 313 274 264 245 207 208 220 215 220 216 196 202 245 260 251 255 298 316 313 312 315 315 313 315 318 311 308 304 276 282 307 317
Height
821 822 822 821 821 821 821 820 821 821 821 820 820 820 820 820 820 820 819 819 820 820 820 820 820 820 820 820 820 820 821 821 821 821 821 823 823 822 821 820 819 818 817 816 814 813 813 813 813 813 813 814 816 816 815 816 817 819 827 833 836 838 835 827 825 826 825 822 820 821 821 820 818 820 821 822 822 824 826 826 827 827 826 826 825 824 824 825
821 821 821 821 821 821 820 820 820 820 820 820 819 819 819 819 819 819 818 818 819 819 820 819 819 819 820 820 820 820 821 821 821 822 823 824 823 822 821 820 819 818 817 816 815 815 814 814 814 814 814 815 817 817 816 816 816 821 831 835 833 832 828 824 824 824 825 823 821 821 822 821 820 819 821 820 821 826 825 822 826 825 824 825 825 824 824 825
821 821 821 821 821 821 820 820 820 819 819 819 818 818 818 818 818 818 817 818 818 818 819 818 819 819 819 820 820 821 821 822 823 824 824 823 822 822 821 819 819 818 817 816 815 815 815 815 814 815 815 816 818 818 817 817 818 822 829 832 828 826 825 826 826 825 825 824 821 820 822 822 821 821 821 821 822 826 822 817 820 819 819 824 825 825 825 825
822 821 821 822 821 820 820 820 819 819 818 818 818 818 818 817 817 817 817 817 817 817 817 818 818 819 820 820 821 822 821 823 825 825 824 823 822 821 820 820 819 818 817 816 815 815 815 815 815 815 816 817 819 820 819 818 820 823 827 827 826 827 826 825 826 826 826 827 823 821 822 821 821 823 822 822 823 823 820 815 815 814 816 823 825 825 826 826
822 821 821 821 821 820 820 819 818 818 818 818 818 817 817 816 816 816 816 816 816 817 817 818 818 819 820 820 822 821 822 827 827 825 824 823 822 821 820 819 818 817 817 815 815 815 814 814 815 816 817 818 819 820 820 821 820 823 827 827 828 830 826 823 826 827 827 828 825 822 822 822 823 823 822 823 821 816 816 817 817 816 817 821 823 824 825 826
821 821 820 820 820 820 819 819 818 818 818 817 817 817 816 816 816 816 815 816 816 817 817 818 819 820 820 821 822 821 824 830 827 824 824 823 821 821 820 819 818 817 816 815 815 814 814 815 815 817 819 820 822 822 821 823 822 822 827 828 829 829 825 824 827 828 828 826 824 824 824 826 825 822 824 824 817 814 817 819 819 818 818 819 821 823 824 824
821 821 820 819 819 819 819 818 818 818 818 817 816 816 816 815 815 815 815 815 816 817 818 819 819 820 821 821 822 822 825 828 826 824 824 822 821 821 819 819 818 816 816 815 815 815 815 815 815 819 820 821 824 824 822 824 823 822 825 827 828 829 827 828 829 829 829 826 826 828 827 826 824 823 827 823 814 815 819 819 819 818 818 819 821 822 822 822
820 820 820 820 819 819 819 818 818 818 817 817 816 816 815 815 815 815 815 815 816 817 818 819 820 820 821 822 822 824 826 826 826 825 823 822 821 820 819 819 818 817 816 815 816 815 816 816 818 820 821 822 824 823 824 823 822 823 824 826 828 829 829 830 830 830 830 829 829 830 826 824 825 827 826 818 812 816 819 819 819 818 819 820 820 821 822 822
820 820 820 820 819 819 819 819 818 818 817 817 816 816 815 815 815 815 815 816 817 818 819 820 820 821 822 822 822 826 828 827 826 824 823 822 821 820 819 819 818 817 816 816 816 815 816 818 819 819 820 823 823 823 825 823 823 824 825 827 828 829 831 832 831 830 831 830 830 828 826 824 826 829 821 812 813 817 819 819 819 819 820 820 820 821 821 821
820 820 820 820 820 819 819 819 818 818 817 817 816 816 816 816 815 816 817 817 818 819 820 820 821 821 822 822 823 828 828 826 826 825 823 822 821 821 820 819 818 818 817 817 817 816 817 818 819 819 819 822 823 825 826 825 825 827 828 828 829 831 832 832 830 830 830 830 830 828 825 823 826 829 816 808 815 820 818 819 820 820 821 821 821 821 820 821
821 820 820 820 820 819 819 819 818 818 817 817 817 816 816 817 817 817 818 818 819 820 821 821 821 822 822 822 825 829 827 826 826 824 823 822 821 820 820 819 819 818 818 818 818 818 818 818 819 818 819 822 823 826 826 825 826 828 829 828 830 832 831 832 830 830 831 829 830 830 825 822 828 826 812 810 818 820 818 819 821 821 821 822 821 821 821 820
821 820 820 820 819 819 819 819 818 818 818 817 817 817 818 818 818 819 819 820 820 821 821 821 822 822 822 823 826 828 826 826 826 824 823 822 820 820 820 820 819 819 819 819 819 818 819 818 817 818 821 822 824 827 826 826 828 828 829 828 829 830 830 832 831 832 833 829 829 831 821 814 823 818 808 815 821 821 821 819 821 822 821 822 821 821 820 819
821 820 820 819 819 819 819 819 819 818 818 818 818 818 819 819 819 819 820 821 821 822 822 822 823 822 822 825 827 827 826 826 825 824 823 821 820 820 820 820 820 819 819 819 819 819 818 818 817 819 822 822 825 827 825 828 829 828 832 832 831 830 829 833 834 833 831 830 830 830 823 809 811 810 807 819 823 821 821 819 820 821 820 821 820 820 818 818
820 819 819 819 819 819 819 819 819 819 819 819 819 819 820 820 820 820 821 822 822 822 822 822 823 822 823 827 827 826 826 826 825 824 822 820 820 819 820 820 820 820 819 819 819 819 818 818 817 818 822 824 826 826 828 831 831 832 833 836 843 837 829 833 838 834 829 833 830 830 831 814 805 807 809 819 823 820 817 815 819 820 820 819 818 818 816 816
820 819 819 819 820 820 820 820 820 820 820 820 820 820 821 821 821 821 822 822 822 822 822 822 823 822 825 827 826 827 827 826 825 824 823 821 820 820 820 819 819 820 819 819 818 819 819 817 818 822 825 826 827 827 830 833 835 841 835 835 848 844 835 835 840 841 835 835 833 830 832 818 806 806 810 820 823 820 815 812 817 819 819 818 817 817 815 814
820 820 820 820 820 820 821 821 821 821 821 821 821 821 822 821 822 822 822 823 822 823 822 823 823 823 826 828 826 826 827 826 826 825 824 822 821 821 820 819 819 819 819 819 819 819 819 819 826 831 830 829 833 831 832 834 836 846 843 837 846 845 841 838 837 845 844 837 835 832 831 820 807 804 811 821 820 818 815 811 814 816 816 817 815 816 815 814
820 820 821 821 821 821 821 821 821 821 821 822 822 822 822 822 823 822 823 823 823 823 823 823 823 823 827 827 827 828 828 827 826 825 824 822 822 822 820 819 819 818 819 818 818 820 820 824 831 834 836 841 844 836 832 836 837 845 849 846 851 853 849 843 836 843 845 839 836 835 834 824 809 804 809 817 817 816 813 809 812 813 813 815 815 816 816 815
821 821 821 821 821 821 821 822 822 822 822 822 823 823 823 823 824 823 824 824 824 823 823 824 824 826 830 829 830 831 829 828 827 826 824 822 823 822 821 821 820 819 819 820 821 823 824 828 832 832 838 845 846 838 834 842 845 847 851 850 855 858 855 850 841 842 846 843 838 836 833 823 812 807 805 809 814 812 808 808 810 811 811 812 814 815 814 814
821 821 821 821 821 821 822 822 822 822 823 823 823 824 824 824 824 824 825 825 826 827 828 830 830 832 834 832 833 831 829 828 827 826 824 823 822 822 822 821 822 820 822 825 825 829 831 830 832 834 841 848 851 849 845 849 852 853 856 856 856 855 854 852 845 846 851 844 835 832 828 821 815 809 802 803 809 809 807 808 808 809 809 809 810 810 810 810
822 821 821 821 821 821 822 822 823 823 823 824 824 824 825 826 827 828 829 829 832 835 835 835 835 835 834 834 833 830 829 828 827 827 825 823 822 822 823 823 824 824 829 833 830 836 839 834 839 844 848 853 855 857 856 857 859 857 858 858 857 858 852 847 847 851 854 843 830 830 832 827 819 811 803 802 806 806 804 804 804 804 805 805 806 806 806 805
822 821 821 821 821 822 822 823 824 824 824 825 825 825 826 827 828 830 833 835 837 837 836 836 836 835 834 834 833 831 831 828 828 828 825 825 824 822 826 827 826 828 839 844 838 839 838 835 845 850 853 857 858 861 860 859 860 858 858 857 855 857 849 843 849 853 854 848 834 833 835 821 812 808 802 801 801 798 797 797 795 796 799 803 804 803 803 801
822 821 822 821 822 822 822 823 824 825 825 825 825 825 826 826 827 827 830 835 837 837 836 836 836 835 835 834 834 833 833 830 829 827 826 826 823 825 830 832 831 835 844 845 838 838 838 839 847 852 858 861 861 863 858 855 858 855 858 857 849 852 849 843 851 855 854 847 832 834 837 815 804 805 797 797 797 794 797 798 794 794 795 798 800 800 801 800
822 822 822 821 822 822 822 823 824 826 826 826 825 825 825 825 827 827 827 833 837 837 837 836 836 837 835 834 834 834 834 835 834 831 829 827 828 832 834 835 837 840 843 841 836 836 838 842 851 857 860 857 856 859 855 852 854 853 856 853 845 852 851 838 844 853 852 851 841 838 837 814 801 800 790 793 801 797 800 801 798 801 797 794 797 797 798 798
821 822 821 821 821 821 823 824 825 826 826 826 825 825 826 826 827 827 829 836 839 837 837 838 838 838 836 836 835 834 835 839 838 835 832 831 833 837 837 840 841 840 847 849 841 837 840 849 857 858 856 854 851 853 853 849 849 852 856 852 845 850 853 845 848 853 849 854 854 841 824 801 792 795 786 790 799 793 795 796 790 795 799 797 797 796 797 796
822 821 820 821 821 822 824 824 826 827 827 827 826 826 827 826 828 828 830 839 840 838 838 838 838 838 837 836 835 836 837 838 838 836 835 835 836 837 840 845 841 838 849 854 845 838 844 855 857 853 852 854 850 849 852 850 848 849 850 851 850 850 854 855 855 852 838 837 848 844 823 796 786 794 792 792 794 786 787 789 781 785 794 795 794 793 795 797
822 821 821 820 821 822 824 825 826 827 827 827 827 827 827 827 830 828 831 842 841 838 839 838 838 837 836 836 837 837 837 837 837 837 836 836 837 837 839 844 844 842 848 853 847 844 850 856 856 852 852 853 851 850 852 854 851 845 848 856 856 855 857 857 858 853 838 831 845 851 834 810 793 789 795 800 795 785 783 784 782 784 789 792 794 794 795 797
822 821 821 821 822 823 824 825 826 826 827 827 826 828 828 829 830 828 835 845 842 839 839 837 838 838 837 839 839 837 836 837 837 837 837 836 837 837 836 841 844 844 852 851 841 844 851 853 854 854 852 852 849 846 849 855 849 843 854 861 857 858 858 859 860 855 853 847 847 853 845 830 811 794 801 806 792 785 784 782 784 786 787 792 795 795 796 796
822 822 821 822 823 823 825 825 825 826 826 826 827 828 828 830 830 830 838 845 843 839 838 837 837 837 837 839 839 839 840 841 838 836 838 837 836 837 836 841 843 844 855 848 832 841 852 848 849 851 850 849 845 844 850 853 846 846 859 863 860 863 860 862 863 859 868 856 833 842 848 833 813 797 803 806 791 787 789 786 788 789 790 794 795 794 795 796
823 823 822 823 823 824 825 825 825 826 825 826 827 828 829 830 830 835 843 844 840 839 839 837 835 838 841 839 840 844 842 842 841 838 838 838 836 836 838 844 847 845 853 851 837 842 851 850 852 850 847 845 844 850 855 850 847 853 862 863 863 868 864 866 866 861 867 849 820 834 846 829 810 794 794 796 791 794 796 792 793 794 796 797 797 797 795 796
824 823 823 823 823 824 825 825 826 825 826 827 827 829 830 831 835 841 845 841 838 840 840 836 837 843 844 839 840 846 844 843 846 842 839 839 838 839 844 848 848 846 850 852 846 847 855 857 857 852 847 848 849 856 860 855 854 858 860 856 856 864 867 867 870 866 855 833 823 840 848 836 817 795 788 794 799 803 802 797 794 795 798 798 799 800 799 799
825 824 823 823 824 824 824 825 825 825 826 826 828 830 830 835 843 844 842 839 838 840 839 840 846 848 848 845 842 845 846 845 848 843 838 841 840 839 843 843 843 844 841 841 841 848 855 853 852 852 851 854 851 852 861 863 861 858 854 850 844 849 857 856 860 859 837 819 831 849 850 844 826 797 789 799 806 807 805 803 801 800 801 801 802 803 803 803
825 824 823 823 823 824 824 825 825 826 827 827 829 830 833 842 844 839 840 838 836 840 841 844 851 850 852 853 848 850 850 846 847 847 846 848 844 843 845 844 843 837 831 836 839 838 841 847 853 851 851 854 847 844 854 859 859 855 851 849 839 836 841 835 835 842 831 823 842 852 846 841 825 804 798 802 802 803 808 812 810 809 807 805 805 805 805 805
825 825 824 823 823 824 825 825 825 826 826 828 830 832 839 842 838 841 844 837 837 846 847 849 854 855 854 848 846 855 854 846 848 851 853 854 846 847 854 858 855 840 831 843 844 831 828 842 852 846 844 852 847 838 839 845 852 850 846 845 838 837 840 832 833 841 834 831 847 857 850 833 814 805 806 804 803 808 814 816 814 813 812 809 808 809 807 806
826 825 824 824 824 824 825 825 825 827 827 829 831 836 843 840 838 846 844 839 846 853 852 853 854 854 852 846 849 857 850 845 852 851 849 850 842 840 847 854 860 851 841 845 848 841 831 829 836 838 840 848 847 843 841 841 848 851 853 852 842 839 839 834 833 831 828 839 854 855 843 820 801 803 812 810 810 817 817 816 815 813 812 811 810 811 809 808
826 826 825 825 825 825 826 825 826 827 827 829 834 841 843 835 837 842 837 839 850 851 853 859 853 845 846 849 855 860 850 844 853 852 846 845 838 836 839 843 853 854 843 838 845 854 842 827 836 847 849 850 847 850 853 845 844 856 863 854 843 842 840 841 848 850 851 858 857 848 834 818 806 805 814 816 813 817 817 814 813 811 810 811 811 812 813 811
826 826 825 825 826 826 826 826 827 828 828 831 838 842 839 833 836 839 838 843 846 845 848 851 848 841 839 844 850 858 857 851 852 848 844 846 842 841 843 843 850 852 843 838 842 848 839 828 841 852 850 853 853 852 855 846 839 853 857 845 850 858 848 843 856 871 874 858 844 840 826 815 812 803 805 812 811 814 818 815 814 813 813 814 814 815 815 813
826 826 825 826 826 826 827 827 828 828 828 833 838 840 839 839 842 844 846 849 848 847 844 837 840 841 836 838 841 849 855 852 851 844 839 843 840 838 843 845 853 854 849 848 843 844 841 829 839 851 843 850 861 855 854 855 848 848 847 845 855 862 855 853 855 857 861 849 838 838 826 816 817 804 797 806 811 816 819 817 817 817 816 818 818 818 817 815
827 826 826 827 827 827 828 827 828 828 829 836 839 840 842 843 848 852 852 852 849 847 841 833 838 844 840 836 836 847 851 844 844 844 837 837 835 835 839 841 852 858 858 856 844 845 851 833 835 856 850 849 861 853 845 855 858 851 849 853 854 847 846 856 856 845 848 849 839 834 834 833 824 806 799 808 817 822 822 820 820 820 820 821 820 819 818 817
827 827 827 828 827 828 828 828 829 829 831 838 837 837 844 846 851 858 856 854 849 843 839 836 841 847 845 842 838 846 851 842 842 844 837 834 833 835 839 839 848 858 861 860 848 847 855 840 832 852 858 851 852 846 838 845 858 859 856 857 856 852 849 852 858 854 847 849 843 833 827 821 813 807 808 817 825 826 824 824 824 823 824 823 822 822 822 821
828 829 828 828 827 827 829 828 829 829 833 842 841 840 848 849 852 860 860 856 851 844 841 841 843 842 842 847 846 845 851 850 847 844 839 838 834 831 839 841 844 856 862 860 854 851 854 849 836 842 856 850 837 837 834 831 843 852 852 854 853 856 858 855 860 862 851 845 848 844 827 807 805 812 814 820 827 826 826 827 826 826 825 825 825 825 824 823
829 830 828 828 827 828 829 828 834 840 838 842 846 846 850 850 851 858 861 860 856 851 849 846 844 841 838 843 845 845 848 849 850 847 840 840 833 826 838 844 843 851 856 852 852 850 849 852 845 839 843 834 824 838 845 836 837 839 839 844 845 848 852 850 852 862 863 853 846 848 836 807 803 815 818 822 827 826 828 829 826 827 826 826 827 825 824 823
830 831 829 829 827 828 829 832 846 854 843 839 847 850 852 852 852 855 858 859 856 854 854 851 848 846 841 840 844 847 845 844 849 847 838 837 832 828 841 850 847 848 848 846 852 855 852 855 852 842 837 833 834 850 855 848 846 844 841 846 849 848 845 840 842 850 860 861 857 862 850 814 805 820 820 821 825 825 827 829 828 828 826 826 825 822 821 821
831 831 828 828 828 828 830 835 846 848 842 847 855 855 855 855 853 854 857 855 852 852 852 849 847 844 841 843 846 846 843 839 840 839 835 836 836 840 851 854 850 847 845 846 852 855 853 852 848 838 832 835 846 856 857 854 850 844 844 852 851 847 843 841 846 851 852 851 853 862 848 814 809 824 823 822 827 827 828 829 827 827 825 824 823 820 820 820
833 832 830 829 828 828 831 834 837 835 840 852 854 851 854 856 853 852 852 850 850 851 847 844 845 843 844 848 846 843 842 834 830 834 837 837 839 850 858 855 851 848 844 845 847 846 845 845 845 840 830 827 832 837 840 846 847 840 840 850 849 847 852 854 857 862 853 838 838 850 838 811 810 823 823 824 827 825 827 828 826 826 825 823 822 821 820 820
833 832 832 830 828 829 833 836 835 832 840 849 847 846 849 850 851 852 849 848 851 850 845 844 848 846 848 851 847 845 846 836 830 836 841 840 843 853 859 855 853 851 848 853 853 845 844 846 844 838 834 832 826 819 821 831 841 840 839 846 848 847 850 847 847 856 850 838 839 842 827 807 804 814 821 826 828 826 826 826 825 826 825 824 823 821 820 820
832 832 832 831 830 832 837 843 840 834 839 843 841 845 846 843 848 853 851 847 849 851 848 846 850 848 847 849 844 841 844 842 840 842 841 838 839 850 860 857 855 855 853 856 855 850 851 854 848 837 833 831 822 819 827 835 837 835 833 839 844 847 848 845 846 850 843 840 839 828 820 814 806 810 824 831 831 829 828 826 826 825 824 823 822 820 820 820
832 832 833 832 831 832 835 841 840 834 838 839 835 840 844 841 845 850 850 849 849 850 848 847 847 842 839 843 839 836 843 847 845 843 840 838 840 851 861 859 857 857 856 856 855 852 852 851 849 846 839 833 827 828 837 843 839 834 833 835 839 845 849 848 847 840 834 840 834 813 814 822 812 814 830 833 830 830 830 828 827 825 824 822 821 820 820 819
833 833 837 836 832 832 832 835 837 837 840 841 838 840 841 840 840 839 842 850 852 848 844 842 843 839 835 837 832 831 841 845 842 840 837 838 844 848 851 855 859 859 857 856 855 853 850 846 851 855 846 840 841 839 841 845 842 838 837 837 838 845 848 845 842 836 835 840 828 810 814 821 815 821 834 834 831 830 828 827 827 825 824 822 820 820 819 818
836 835 839 839 834 835 839 841 841 838 838 840 839 839 839 836 833 834 841 848 846 847 845 834 830 836 840 839 832 828 832 829 825 830 834 836 842 843 838 841 853 861 858 854 856 857 849 844 856 863 852 843 843 841 843 846 844 841 840 839 839 843 846 845 840 837 840 838 827 822 826 824 820 827 834 832 830 830 828 827 826 824 822 820 818 818 818 817
832 830 834 837 835 839 845 845 842 837 840 843 837 835 838 833 828 833 841 837 828 838 848 834 822 833 842 842 835 827 823 818 813 821 830 831 835 839 832 828 842 859 860 854 857 859 850 846 858 864 851 838 838 842 845 848 848 844 838 837 840 841 843 846 843 842 844 841 834 836 837 830 826 830 832 830 829 828 827 825 823 822 820 818 817 817 816 815
830 829 830 831 832 838 842 843 843 838 837 841 836 832 834 830 829 830 830 827 823 827 837 831 824 834 844 846 840 827 823 824 820 823 829 828 828 832 830 829 837 849 855 857 857 855 852 852 857 858 844 831 838 847 844 845 849 844 834 833 838 837 834 836 838 837 836 833 832 836 835 830 829 831 830 829 828 827 825 824 822 820 818 817 817 816 815 813
830 829 830 829 830 837 839 840 843 838 832 833 833 831 828 827 834 833 822 823 830 829 831 831 828 832 837 839 835 827 826 831 830 831 834 833 833 835 834 835 837 838 847 857 857 857 856 849 849 854 842 828 838 850 846 843 836 821 815 822 826 826 825 827 831 830 828 828 830 829 826 826 830 832 831 828 826 825 823 822 821 819 815 814 815 814 813 811